Time,TemperatureF,DewpointF,PressureIn,WindDirection,WindDirectionDegrees,WindSpeedMPH,WindSpeedGustMPH,Humidity,HourlyPrecipIn,Conditions,Clouds,dailyrainin,SoftwareType,DateUTC
2013-01-24 00:03:00,-4.5,-15.5,30.74,NNE,12,3.0,7.0,58,0.00,,---,0.00,VWS V14.01,2013-01-24 06:03:00,
2013-01-24 00:08:00,-4.5,-15.5,30.74,NW,325,3.0,7.0,58,0.00,,---,0.00,VWS V14.01,2013-01-24 06:08:00,
2013-01-24 00:13:00,-4.6,-15.3,30.74,North,5,2.0,3.0,59,0.00,,---,0.00,VWS V14.01,2013-01-24 06:13:00,
2013-01-24 00:18:00,-4.7,-15.4,30.74,NNE,18,4.0,5.0,59,0.00,,---,0.00,VWS V14.01,2013-01-24 06:18:00,
2013-01-24 00:23:00,-4.7,-15.7,30.74,North,349,1.0,6.0,58,0.00,,---,0.00,VWS V14.01,2013-01-24 06:23:00,
2013-01-24 00:28:00,-4.8,-15.5,30.74,NNW,348,0.0,1.0,59,0.00,,---,0.00,VWS V14.01,2013-01-24 06:28:00,
2013-01-24 00:33:00,-4.8,-15.5,30.75,NNW,338,1.0,3.0,59,0.00,,---,0.00,VWS V14.01,2013-01-24 06:33:00,
2013-01-24 00:38:00,-4.9,-15.2,30.75,North,360,1.0,3.0,60,0.00,,---,0.00,VWS V14.01,2013-01-24 06:38:00,
2013-01-24 00:43:00,-4.9,-15.2,30.75,North,351,0.0,1.0,60,0.00,,---,0.00,VWS V14.01,2013-01-24 06:43:00,
2013-01-24 00:48:00,-5.0,-15.3,30.74,North,360,0.0,3.0,60,0.00,,---,0.00,VWS V14.01,2013-01-24 06:48:00,
2013-01-24 00:53:00,-5.1,-15.7,30.75,North,353,0.0,5.0,59,0.00,,---,0.00,VWS V14.01,2013-01-24 06:53:00,
2013-01-24 00:58:00,-5.2,-15.8,30.74,North,6,1.0,7.0,59,0.00,,---,0.00,VWS V14.01,2013-01-24 06:58:00,
2013-01-24 01:03:00,-5.4,-16.0,30.75,North,5,2.0,7.0,59,0.00,,---,0.00,VWS V14.01,2013-01-24 07:03:00,
2013-01-24 01:08:00,-5.4,-16.0,30.75,North,5,1.0,7.0,59,0.00,,---,0.00,VWS V14.01,2013-01-24 07:08:00,
2013-01-24 01:13:00,-5.4,-15.7,30.75,NNE,13,1.0,5.0,60,0.00,,---,0.00,VWS V14.01,2013-01-24 07:13:00,
2013-01-24 01:18:00,-5.4,-15.7,30.75,NW,320,0.0,5.0,60,0.00,,---,0.00,VWS V14.01,2013-01-24 07:18:00,
2013-01-24 01:23:00,-5.4,-15.4,30.75,NNW,345,1.0,5.0,61,0.00,,---,0.00,VWS V14.01,2013-01-24 07:23:00,
2013-01-24 01:28:00,-5.5,-15.8,30.75,NNW,329,0.0,2.0,60,0.00,,---,0.00,VWS V14.01,2013-01-24 07:28:00,
2013-01-24 01:33:00,-5.5,-15.5,30.75,NNW,346,0.0,4.0,61,0.00,,---,0.00,VWS V14.01,2013-01-24 07:33:00,
2013-01-24 01:38:00,-5.6,-15.9,30.75,NNE,23,4.0,6.0,60,0.00,,---,0.00,VWS V14.01,2013-01-24 07:38:00,
2013-01-24 01:43:00,-5.8,-16.4,30.75,NNE,22,3.0,3.0,59,0.00,,---,0.00,VWS V14.01,2013-01-24 07:43:00,
2013-01-24 01:48:00,-5.9,-16.2,30.75,NNE,19,3.0,7.0,60,0.00,,---,0.00,VWS V14.01,2013-01-24 07:48:00,
2013-01-24 01:53:00,-5.9,-16.2,30.75,North,2,1.0,7.0,60,0.00,,---,0.00,VWS V14.01,2013-01-24 07:53:00,
2013-01-24 01:58:00,-5.9,-16.2,30.75,NW,304,1.0,3.0,60,0.00,,---,0.00,VWS V14.01,2013-01-24 07:58:00,
2013-01-24 02:03:00,-5.8,-15.8,30.75,North,356,1.0,4.0,61,0.00,,---,0.00,VWS V14.01,2013-01-24 08:03:00,
2013-01-24 02:08:00,-5.8,-15.8,30.75,North,357,0.0,4.0,61,0.00,,---,0.00,VWS V14.01,2013-01-24 08:08:00,
2013-01-24 02:13:00,-5.9,-15.9,30.76,North,4,0.0,2.0,61,0.00,,---,0.00,VWS V14.01,2013-01-24 08:13:00,
2013-01-24 02:18:00,-5.8,-15.8,30.76,NNW,334,0.0,4.0,61,0.00,,---,0.00,VWS V14.01,2013-01-24 08:18:00,
2013-01-24 02:23:00,-5.9,-15.9,30.76,North,359,2.0,5.0,61,0.00,,---,0.00,VWS V14.01,2013-01-24 08:23:00,
2013-01-24 02:28:00,-5.9,-15.9,30.76,NW,324,2.0,2.0,61,0.00,,---,0.00,VWS V14.01,2013-01-24 08:28:00,
2013-01-24 02:33:00,-5.9,-15.5,30.77,NNE,12,0.0,2.0,62,0.00,,---,0.00,VWS V14.01,2013-01-24 08:33:00,
2013-01-24 02:38:00,-5.9,-15.9,30.78,WNW,288,0.0,4.0,61,0.00,,---,0.00,VWS V14.01,2013-01-24 08:38:00,
2013-01-24 02:43:00,-5.8,-15.4,30.78,WNW,288,0.0,1.0,62,0.00,,---,0.00,VWS V14.01,2013-01-24 08:43:00,
2013-01-24 02:48:00,-5.8,-15.4,30.78,NNW,344,0.0,4.0,62,0.00,,---,0.00,VWS V14.01,2013-01-24 08:48:00,
2013-01-24 02:53:00,-5.8,-15.4,30.78,NW,313,1.0,4.0,62,0.00,,---,0.00,VWS V14.01,2013-01-24 08:53:00,
2013-01-24 02:58:00,-5.8,-15.4,30.78,North,2,0.0,1.0,62,0.00,,---,0.00,VWS V14.01,2013-01-24 08:58:00,
2013-01-24 03:03:00,-5.9,-15.5,30.78,NW,308,0.0,2.0,62,0.00,,---,0.00,VWS V14.01,2013-01-24 09:03:00,
2013-01-24 03:08:00,-5.9,-15.5,30.78,North,3,3.0,3.0,62,0.00,,---,0.00,VWS V14.01,2013-01-24 09:08:00,
2013-01-24 03:13:00,-5.9,-15.5,30.79,NNW,348,1.0,2.0,62,0.00,,---,0.00,VWS V14.01,2013-01-24 09:13:00,
2013-01-24 03:18:00,-6.0,-15.6,30.78,North,353,0.0,2.0,62,0.00,,---,0.00,VWS V14.01,2013-01-24 09:18:00,
2013-01-24 03:23:00,-6.0,-15.6,30.79,NNE,16,0.0,3.0,62,0.00,,---,0.00,VWS V14.01,2013-01-24 09:23:00,
2013-01-24 03:28:00,-6.0,-15.6,30.79,NNW,327,0.0,0.0,62,0.00,,---,0.00,VWS V14.01,2013-01-24 09:28:00,
2013-01-24 03:33:00,-5.9,-15.5,30.79,NNW,327,0.0,0.0,62,0.00,,---,0.00,VWS V14.01,2013-01-24 09:33:00,
2013-01-24 03:38:00,-5.9,-15.5,30.80,North,351,1.0,2.0,62,0.00,,---,0.00,VWS V14.01,2013-01-24 09:38:00,
2013-01-24 03:43:00,-6.0,-15.6,30.79,NNE,19,2.0,3.0,62,0.00,,---,0.00,VWS V14.01,2013-01-24 09:43:00,
2013-01-24 03:48:00,-6.0,-15.6,30.80,WNW,299,0.0,3.0,62,0.00,,---,0.00,VWS V14.01,2013-01-24 09:48:00,
2013-01-24 03:53:00,-5.9,-15.2,30.79,NNW,346,0.0,3.0,63,0.00,,---,0.00,VWS V14.01,2013-01-24 09:53:00,
2013-01-24 03:58:00,-5.9,-15.2,30.79,North,359,0.0,2.0,63,0.00,,---,0.00,VWS V14.01,2013-01-24 09:58:00,
2013-01-24 04:03:00,-6.0,-15.3,30.80,NNW,346,0.0,2.0,63,0.00,,---,0.00,VWS V14.01,2013-01-24 10:03:00,
2013-01-24 04:08:00,-5.9,-15.2,30.80,NNW,337,0.0,2.0,63,0.00,,---,0.00,VWS V14.01,2013-01-24 10:08:00,
2013-01-24 04:13:00,-6.0,-15.3,30.80,NNE,16,3.0,3.0,63,0.00,,---,0.00,VWS V14.01,2013-01-24 10:13:00,
2013-01-24 04:18:00,-5.9,-15.2,30.79,NNW,334,0.0,5.0,63,0.00,,---,0.00,VWS V14.01,2013-01-24 10:18:00,
2013-01-24 04:23:00,-5.9,-15.2,30.78,NNW,348,1.0,5.0,63,0.00,,---,0.00,VWS V14.01,2013-01-24 10:23:00,
2013-01-24 04:28:00,-5.9,-14.9,30.79,NNW,348,1.0,2.0,64,0.00,,---,0.00,VWS V14.01,2013-01-24 10:28:00,
2013-01-24 04:33:00,-5.9,-15.2,30.79,North,2,1.0,2.0,63,0.00,,---,0.00,VWS V14.01,2013-01-24 10:33:00,
2013-01-24 04:38:00,-6.0,-15.3,30.79,North,2,0.0,2.0,63,0.00,,---,0.00,VWS V14.01,2013-01-24 10:38:00,
2013-01-24 04:43:00,-5.8,-14.8,30.78,North,2,0.0,0.0,64,0.00,,---,0.00,VWS V14.01,2013-01-24 10:43:00,
2013-01-24 04:48:00,-5.8,-14.8,30.77,North,2,0.0,1.0,64,0.00,,---,0.00,VWS V14.01,2013-01-24 10:48:00,
2013-01-24 04:53:00,-5.9,-14.9,30.77,North,2,0.0,1.0,64,0.00,,---,0.00,VWS V14.01,2013-01-24 10:53:00,
2013-01-24 04:58:00,-5.9,-14.9,30.77,North,2,0.0,0.0,64,0.00,,---,0.00,VWS V14.01,2013-01-24 10:58:00,
2013-01-24 05:03:00,-5.9,-14.9,30.76,NNW,347,0.0,4.0,64,0.00,,---,0.00,VWS V14.01,2013-01-24 11:03:00,
2013-01-24 05:08:00,-5.9,-14.9,30.76,NNE,16,1.0,4.0,64,0.00,,---,0.00,VWS V14.01,2013-01-24 11:08:00,
2013-01-24 05:13:00,-5.9,-14.6,30.76,NNW,329,0.0,0.0,65,0.00,,---,0.00,VWS V14.01,2013-01-24 11:13:00,
2013-01-24 05:18:00,-5.9,-14.6,30.76,North,10,2.0,4.0,65,0.00,,---,0.00,VWS V14.01,2013-01-24 11:18:00,
2013-01-24 05:23:00,-5.8,-14.5,30.76,NNW,327,0.0,4.0,65,0.00,,---,0.00,VWS V14.01,2013-01-24 11:23:00,
2013-01-24 05:28:00,-5.7,-14.4,30.76,NNW,342,1.0,1.0,65,0.00,,---,0.00,VWS V14.01,2013-01-24 11:28:00,
2013-01-24 05:33:00,-5.6,-14.3,30.76,North,353,0.0,2.0,65,0.00,,---,0.00,VWS V14.01,2013-01-24 11:33:00,
2013-01-24 05:38:00,-5.6,-14.3,30.76,North,360,0.0,4.0,65,0.00,,---,0.00,VWS V14.01,2013-01-24 11:38:00,
2013-01-24 05:43:00,-5.6,-14.3,30.77,North,2,0.0,1.0,65,0.00,,---,0.00,VWS V14.01,2013-01-24 11:43:00,
2013-01-24 05:48:00,-5.5,-14.2,30.76,NNW,345,0.0,1.0,65,0.00,,---,0.00,VWS V14.01,2013-01-24 11:48:00,
2013-01-24 05:53:00,-5.4,-14.1,30.76,ESE,114,0.0,2.0,65,0.00,,---,0.00,VWS V14.01,2013-01-24 11:53:00,
2013-01-24 05:58:00,-5.3,-13.7,30.76,ESE,114,0.0,0.0,66,0.00,,---,0.00,VWS V14.01,2013-01-24 11:58:00,
2013-01-24 06:03:00,-5.3,-13.7,30.77,ESE,114,0.0,1.0,66,0.00,,---,0.00,VWS V14.01,2013-01-24 12:03:00,
2013-01-24 06:08:00,-5.2,-13.6,30.77,SSE,165,0.0,2.0,66,0.00,,---,0.00,VWS V14.01,2013-01-24 12:08:00,
2013-01-24 06:13:00,-5.1,-13.5,30.77,NNW,334,2.0,2.0,66,0.00,,---,0.00,VWS V14.01,2013-01-24 12:13:00,
2013-01-24 06:18:00,-5.1,-13.5,30.78,NNW,337,0.0,2.0,66,0.00,,---,0.00,VWS V14.01,2013-01-24 12:18:00,
2013-01-24 06:23:00,-5.1,-13.8,30.78,NNW,335,0.0,2.0,65,0.00,,---,0.00,VWS V14.01,2013-01-24 12:23:00,
2013-01-24 06:28:00,-5.0,-13.4,30.78,NNW,335,0.0,0.0,66,0.00,,---,0.00,VWS V14.01,2013-01-24 12:28:00,
2013-01-24 06:33:00,-5.0,-13.4,30.78,NNW,335,0.0,1.0,66,0.00,,---,0.00,VWS V14.01,2013-01-24 12:33:00,
2013-01-24 06:38:00,-4.9,-13.3,30.80,NNW,335,1.0,1.0,66,0.00,,---,0.00,VWS V14.01,2013-01-24 12:38:00,
2013-01-24 06:43:00,-5.0,-13.7,30.80,NNW,335,0.0,0.0,65,0.00,,---,0.00,VWS V14.01,2013-01-24 12:43:00,
2013-01-24 06:48:00,-5.0,-13.7,30.81,NNW,336,0.0,0.0,65,0.00,,---,0.00,VWS V14.01,2013-01-24 12:48:00,
2013-01-24 06:53:00,-4.9,-13.6,30.81,NNW,335,0.0,0.0,65,0.00,,---,0.00,VWS V14.01,2013-01-24 12:53:00,
2013-01-24 06:58:00,-4.7,-13.4,30.80,NNW,335,0.0,0.0,65,0.00,,---,0.00,VWS V14.01,2013-01-24 12:58:00,
2013-01-24 07:03:00,-4.7,-13.4,30.80,NNW,333,0.0,0.0,65,0.00,,---,0.00,VWS V14.01,2013-01-24 13:03:00,
2013-01-24 07:08:00,-4.6,-13.4,30.80,NNW,332,0.0,0.0,65,0.00,,---,0.00,VWS V14.01,2013-01-24 13:08:00,
2013-01-24 07:13:00,-4.5,-13.3,30.80,NNW,332,0.0,0.0,65,0.00,,---,0.00,VWS V14.01,2013-01-24 13:13:00,
2013-01-24 07:18:00,-4.4,-13.2,30.80,NNW,333,0.0,0.0,65,0.00,,---,0.00,VWS V14.01,2013-01-24 13:18:00,
2013-01-24 07:23:00,-4.3,-13.1,30.79,NNW,332,0.0,0.0,65,0.00,,---,0.00,VWS V14.01,2013-01-24 13:23:00,
2013-01-24 07:28:00,-4.2,-13.0,30.79,NNW,332,0.0,0.0,65,0.00,,---,0.00,VWS V14.01,2013-01-24 13:28:00,
2013-01-24 07:33:00,-4.1,-12.9,30.79,NNW,333,0.0,0.0,65,0.00,,---,0.00,VWS V14.01,2013-01-24 13:33:00,
2013-01-24 07:38:00,-4.1,-12.6,30.79,NNW,332,0.0,0.0,66,0.00,,---,0.00,VWS V14.01,2013-01-24 13:38:00,
2013-01-24 07:43:00,-4.1,-12.6,30.79,North,349,0.0,0.0,66,0.00,,---,0.00,VWS V14.01,2013-01-24 13:43:00,
2013-01-24 07:48:00,-4.1,-12.6,30.79,North,349,0.0,0.0,66,0.00,,---,0.00,VWS V14.01,2013-01-24 13:48:00,
2013-01-24 07:53:00,-4.1,-12.6,30.79,NNW,346,1.0,1.0,66,0.00,,---,0.00,VWS V14.01,2013-01-24 13:53:00,
2013-01-24 07:58:00,-4.0,-12.5,30.78,NNW,345,0.0,0.0,66,0.00,,---,0.00,VWS V14.01,2013-01-24 13:58:00,
2013-01-24 08:03:00,-4.0,-12.5,30.78,NNW,345,0.0,1.0,66,0.00,,---,0.00,VWS V14.01,2013-01-24 14:03:00,
2013-01-24 08:08:00,-4.0,-12.5,30.78,NNW,346,0.0,1.0,66,0.00,,---,0.00,VWS V14.01,2013-01-24 14:08:00,
2013-01-24 08:13:00,-3.8,-12.3,30.78,ESE,114,1.0,4.0,66,0.00,,---,0.00,VWS V14.01,2013-01-24 14:13:00,
2013-01-24 08:18:00,-3.8,-12.3,30.78,ESE,104,0.0,4.0,66,0.00,,---,0.00,VWS V14.01,2013-01-24 14:18:00,
2013-01-24 08:23:00,-3.6,-11.8,30.77,ESE,104,0.0,4.0,67,0.00,,---,0.00,VWS V14.01,2013-01-24 14:23:00,
2013-01-24 08:28:00,-3.5,-11.7,30.77,ESE,104,0.0,0.0,67,0.00,,---,0.00,VWS V14.01,2013-01-24 14:28:00,
2013-01-24 08:33:00,-3.4,-11.9,30.77,East,93,1.0,3.0,66,0.00,,---,0.00,VWS V14.01,2013-01-24 14:33:00,
2013-01-24 08:38:00,-3.4,-11.9,30.76,SE,140,1.0,3.0,66,0.00,,---,0.00,VWS V14.01,2013-01-24 14:38:00,
2013-01-24 08:43:00,-3.3,-11.5,30.76,East,79,1.0,3.0,67,0.00,,---,0.00,VWS V14.01,2013-01-24 14:43:00,
2013-01-24 08:48:00,-3.2,-11.7,30.76,ENE,67,2.0,3.0,66,0.00,,---,0.00,VWS V14.01,2013-01-24 14:48:00,
2013-01-24 08:53:00,-3.2,-11.4,30.76,ESE,109,0.0,3.0,67,0.00,,---,0.00,VWS V14.01,2013-01-24 14:53:00,
2013-01-24 08:58:00,-3.0,-11.2,30.75,East,95,1.0,4.0,67,0.00,,---,0.00,VWS V14.01,2013-01-24 14:58:00,
2013-01-24 09:03:00,-3.0,-11.5,30.76,ESE,111,1.0,4.0,66,0.00,,---,0.00,VWS V14.01,2013-01-24 15:03:00,
2013-01-24 09:08:00,-3.0,-11.5,30.76,SSE,152,1.0,5.0,66,0.00,,---,0.00,VWS V14.01,2013-01-24 15:08:00,
2013-01-24 09:13:00,-2.8,-11.3,30.75,NNE,22,1.0,1.0,66,0.00,,---,0.00,VWS V14.01,2013-01-24 15:13:00,
2013-01-24 09:18:00,-2.7,-11.2,30.75,ESE,106,3.0,6.0,66,0.00,,---,0.00,VWS V14.01,2013-01-24 15:18:00,
2013-01-24 09:23:00,-2.6,-11.1,30.75,South,184,1.0,6.0,66,0.00,,---,0.00,VWS V14.01,2013-01-24 15:23:00,
2013-01-24 09:28:00,-2.6,-11.1,30.74,East,96,2.0,3.0,66,0.00,,---,0.00,VWS V14.01,2013-01-24 15:28:00,
2013-01-24 09:33:00,-2.5,-11.0,30.74,SW,223,0.0,3.0,66,0.00,,---,0.00,VWS V14.01,2013-01-24 15:33:00,
2013-01-24 09:38:00,-2.3,-10.9,30.74,ENE,76,1.0,5.0,66,0.00,,---,0.00,VWS V14.01,2013-01-24 15:38:00,
2013-01-24 09:43:00,-2.1,-10.7,30.74,East,89,2.0,2.0,66,0.00,,---,0.00,VWS V14.01,2013-01-24 15:43:00,
2013-01-24 09:48:00,-2.0,-10.9,30.75,SE,128,1.0,3.0,65,0.00,,---,0.00,VWS V14.01,2013-01-24 15:48:00,
2013-01-24 09:53:00,-1.8,-10.4,30.76,SSE,151,2.0,3.0,66,0.00,,---,0.00,VWS V14.01,2013-01-24 15:53:00,
2013-01-24 09:58:00,-1.4,-10.0,30.76,SSE,160,0.0,0.0,66,0.00,,---,0.00,VWS V14.01,2013-01-24 15:58:00,
2013-01-24 10:03:00,-1.0,-9.6,30.76,ESE,106,1.0,2.0,66,0.00,,---,0.00,VWS V14.01,2013-01-24 16:03:00,
2013-01-24 10:08:00,-0.8,-9.7,30.76,SSE,147,0.0,2.0,65,0.00,,---,0.00,VWS V14.01,2013-01-24 16:08:00,
2013-01-24 10:13:00,-0.7,-9.6,30.76,SE,144,1.0,2.0,65,0.00,,---,0.00,VWS V14.01,2013-01-24 16:13:00,
2013-01-24 10:18:00,-0.6,-9.8,30.75,ESE,119,1.0,5.0,64,0.00,,---,0.00,VWS V14.01,2013-01-24 16:18:00,
2013-01-24 10:23:00,-0.7,-10.3,30.75,ENE,72,1.0,7.0,63,0.00,,---,0.00,VWS V14.01,2013-01-24 16:23:00,
2013-01-24 10:28:00,-0.5,-9.8,30.75,ENE,57,1.0,2.0,64,0.00,,---,0.00,VWS V14.01,2013-01-24 16:28:00,
2013-01-24 10:33:00,-0.5,-10.1,30.74,SSE,165,1.0,4.0,63,0.00,,---,0.00,VWS V14.01,2013-01-24 16:33:00,
2013-01-24 10:38:00,-0.3,-9.9,30.74,ESE,121,1.0,4.0,63,0.00,,---,0.00,VWS V14.01,2013-01-24 16:38:00,
2013-01-24 10:43:00,-0.1,-9.7,30.75,ESE,108,1.0,2.0,63,0.00,,---,0.00,VWS V14.01,2013-01-24 16:43:00,
2013-01-24 10:48:00,-0.1,-9.6,30.76,SE,133,0.0,4.0,63,0.00,,---,0.00,VWS V14.01,2013-01-24 16:48:00,
2013-01-24 10:53:00,0.2,-9.4,30.75,ESE,119,4.0,4.0,63,0.00,,---,0.00,VWS V14.01,2013-01-24 16:53:00,
2013-01-24 10:58:00,0.2,-9.4,30.75,NE,46,3.0,3.0,63,0.00,,---,0.00,VWS V14.01,2013-01-24 16:58:00,
2013-01-24 11:03:00,0.3,-9.3,30.75,SE,140,1.0,4.0,63,0.00,,---,0.00,VWS V14.01,2013-01-24 17:03:00,
2013-01-24 11:08:00,0.6,-9.0,30.74,East,85,2.0,4.0,63,0.00,,---,0.00,VWS V14.01,2013-01-24 17:08:00,
2013-01-24 11:13:00,0.7,-8.9,30.74,East,85,3.0,3.0,63,0.00,,---,0.00,VWS V14.01,2013-01-24 17:13:00,
2013-01-24 11:18:00,0.8,-8.8,30.74,SE,140,2.0,6.0,63,0.00,,---,0.00,VWS V14.01,2013-01-24 17:18:00,
2013-01-24 11:23:00,1.0,-8.6,30.74,ENE,68,1.0,6.0,63,0.00,,---,0.00,VWS V14.01,2013-01-24 17:23:00,
2013-01-24 11:28:00,1.3,-8.4,30.74,NE,54,1.0,3.0,63,0.00,,---,0.00,VWS V14.01,2013-01-24 17:28:00,
2013-01-24 11:33:00,1.6,-8.1,30.73,SE,135,3.0,5.0,63,0.00,,---,0.00,VWS V14.01,2013-01-24 17:33:00,
2013-01-24 11:38:00,1.8,-7.9,30.73,SE,133,2.0,5.0,63,0.00,,---,0.00,VWS V14.01,2013-01-24 17:38:00,
2013-01-24 11:43:00,1.8,-8.2,30.72,ESE,107,1.0,3.0,62,0.00,,---,0.00,VWS V14.01,2013-01-24 17:43:00,
2013-01-24 11:48:00,2.2,-7.5,30.72,ESE,121,5.0,5.0,63,0.00,,---,0.00,VWS V14.01,2013-01-24 17:48:00,
2013-01-24 11:53:00,2.4,-7.3,30.72,SE,137,4.0,5.0,63,0.00,,---,0.00,VWS V14.01,2013-01-24 17:53:00,
2013-01-24 11:58:00,2.6,-7.1,30.71,ENE,64,1.0,2.0,63,0.00,,---,0.00,VWS V14.01,2013-01-24 17:58:00,
2013-01-24 12:03:00,2.8,-6.9,30.71,NE,52,1.0,5.0,63,0.00,,---,0.00,VWS V14.01,2013-01-24 18:03:00,
2013-01-24 12:08:00,3.0,-6.7,30.70,NNE,17,1.0,5.0,63,0.00,,---,0.00,VWS V14.01,2013-01-24 18:08:00,
2013-01-24 12:13:00,3.6,-5.8,30.71,ENE,69,1.0,5.0,64,0.00,,---,0.00,VWS V14.01,2013-01-24 18:13:00,
2013-01-24 12:18:00,3.9,-6.2,30.71,ENE,76,2.0,5.0,62,0.00,,---,0.00,VWS V14.01,2013-01-24 18:18:00,
2013-01-24 12:23:00,4.1,-6.3,30.70,ENE,68,2.0,5.0,61,0.00,,---,0.00,VWS V14.01,2013-01-24 18:23:00,
2013-01-24 12:28:00,4.2,-6.2,30.70,SSE,162,1.0,2.0,61,0.00,,---,0.00,VWS V14.01,2013-01-24 18:28:00,
2013-01-24 12:33:00,4.5,-6.0,30.69,ESE,109,3.0,5.0,61,0.00,,---,0.00,VWS V14.01,2013-01-24 18:33:00,
2013-01-24 12:38:00,4.5,-6.3,30.69,ESE,105,1.0,8.0,60,0.00,,---,0.00,VWS V14.01,2013-01-24 18:38:00,
2013-01-24 12:43:00,4.6,-5.9,30.69,ESE,109,2.0,5.0,61,0.00,,---,0.00,VWS V14.01,2013-01-24 18:43:00,
2013-01-24 12:48:00,4.8,-5.7,30.68,SSE,158,1.0,5.0,61,0.00,,---,0.00,VWS V14.01,2013-01-24 18:48:00,
2013-01-24 12:53:00,5.3,-5.2,30.67,SSE,151,1.0,5.0,61,0.00,,---,0.00,VWS V14.01,2013-01-24 18:53:00,
2013-01-24 12:58:00,5.6,-5.3,30.67,East,90,1.0,5.0,60,0.00,,---,0.00,VWS V14.01,2013-01-24 18:58:00,
2013-01-24 13:03:00,5.8,-5.1,30.66,SE,131,5.0,6.0,60,0.00,,---,0.00,VWS V14.01,2013-01-24 19:03:00,
2013-01-24 13:08:00,5.6,-5.6,30.66,ESE,123,2.0,6.0,59,0.00,,---,0.00,VWS V14.01,2013-01-24 19:08:00,
2013-01-24 13:13:00,5.7,-4.8,30.65,SSE,157,1.0,2.0,61,0.00,,---,0.00,VWS V14.01,2013-01-24 19:13:00,
2013-01-24 13:18:00,6.0,-4.6,30.65,SE,144,1.0,5.0,61,0.00,,---,0.00,VWS V14.01,2013-01-24 19:18:00,
2013-01-24 13:23:00,6.0,-5.2,30.65,SE,124,2.0,6.0,59,0.00,,---,0.00,VWS V14.01,2013-01-24 19:23:00,
2013-01-24 13:28:00,5.9,-5.3,30.65,ESE,107,2.0,6.0,59,0.00,,---,0.00,VWS V14.01,2013-01-24 19:28:00,
2013-01-24 13:33:00,6.0,-4.9,30.65,ESE,121,0.0,6.0,60,0.00,,---,0.00,VWS V14.01,2013-01-24 19:33:00,
2013-01-24 13:38:00,6.4,-4.5,30.65,ENE,65,1.0,6.0,60,0.00,,---,0.00,VWS V14.01,2013-01-24 19:38:00,
2013-01-24 13:43:00,6.6,-4.7,30.65,ESE,121,0.0,2.0,59,0.00,,---,0.00,VWS V14.01,2013-01-24 19:43:00,
2013-01-24 13:48:00,6.6,-4.7,30.64,NNE,29,1.0,6.0,59,0.00,,---,0.00,VWS V14.01,2013-01-24 19:48:00,
2013-01-24 13:53:00,6.6,-4.7,30.64,ENE,69,2.0,6.0,59,0.00,,---,0.00,VWS V14.01,2013-01-24 19:53:00,
2013-01-24 13:58:00,6.7,-4.6,30.64,ENE,74,3.0,8.0,59,0.00,,---,0.00,VWS V14.01,2013-01-24 19:58:00,
2013-01-24 14:03:00,6.8,-4.1,30.64,SE,128,2.0,8.0,60,0.00,,---,0.00,VWS V14.01,2013-01-24 20:03:00,
2013-01-24 14:08:00,6.9,-4.4,30.64,NE,44,0.0,8.0,59,0.00,,---,0.00,VWS V14.01,2013-01-24 20:08:00,
2013-01-24 14:13:00,7.2,-3.8,30.64,ESE,106,1.0,2.0,60,0.00,,---,0.00,VWS V14.01,2013-01-24 20:13:00,
2013-01-24 14:18:00,7.3,-4.0,30.63,SSE,147,2.0,3.0,59,0.00,,---,0.00,VWS V14.01,2013-01-24 20:18:00,
2013-01-24 14:23:00,7.4,-3.9,30.63,ENE,75,1.0,3.0,59,0.00,,---,0.00,VWS V14.01,2013-01-24 20:23:00,
2013-01-24 14:28:00,7.6,-3.7,30.62,NE,48,4.0,5.0,59,0.00,,---,0.00,VWS V14.01,2013-01-24 20:28:00,
2013-01-24 14:33:00,7.7,-3.6,30.61,East,82,2.0,5.0,59,0.00,,---,0.00,VWS V14.01,2013-01-24 20:33:00,
2013-01-24 14:38:00,7.8,-3.9,30.61,NE,54,1.0,5.0,58,0.00,,---,0.00,VWS V14.01,2013-01-24 20:38:00,
2013-01-24 14:43:00,7.9,-3.8,30.59,SSE,151,3.0,3.0,58,0.00,,---,0.00,VWS V14.01,2013-01-24 20:43:00,
2013-01-24 14:48:00,8.0,-3.7,30.59,North,5,0.0,5.0,58,0.00,,---,0.00,VWS V14.01,2013-01-24 20:48:00,
2013-01-24 14:53:00,8.2,-3.5,30.58,ESE,119,1.0,5.0,58,0.00,,---,0.00,VWS V14.01,2013-01-24 20:53:00,
2013-01-24 14:58:00,8.3,-3.8,30.58,SSE,147,1.0,2.0,57,0.00,,---,0.00,VWS V14.01,2013-01-24 20:58:00,
2013-01-24 15:03:00,8.5,-3.2,30.58,SE,142,2.0,5.0,58,0.00,,---,0.00,VWS V14.01,2013-01-24 21:03:00,
2013-01-24 15:08:00,8.7,-3.4,30.58,ESE,114,0.0,5.0,57,0.00,,---,0.00,VWS V14.01,2013-01-24 21:08:00,
2013-01-24 15:13:00,8.7,-3.8,30.58,SE,144,2.0,2.0,56,0.00,,---,0.00,VWS V14.01,2013-01-24 21:13:00,
2013-01-24 15:18:00,8.8,-3.7,30.57,ESE,116,3.0,5.0,56,0.00,,---,0.00,VWS V14.01,2013-01-24 21:18:00,
2013-01-24 15:23:00,8.8,-3.7,30.57,ENE,64,1.0,7.0,56,0.00,,---,0.00,VWS V14.01,2013-01-24 21:23:00,
2013-01-24 15:28:00,8.9,-3.6,30.57,ESE,113,5.0,5.0,56,0.00,,---,0.00,VWS V14.01,2013-01-24 21:28:00,
2013-01-24 15:33:00,9.1,-3.4,30.56,East,91,1.0,5.0,56,0.00,,---,0.00,VWS V14.01,2013-01-24 21:33:00,
2013-01-24 15:38:00,9.1,-3.0,30.56,NE,54,1.0,5.0,57,0.00,,---,0.00,VWS V14.01,2013-01-24 21:38:00,
2013-01-24 15:43:00,9.2,-3.3,30.55,East,83,4.0,5.0,56,0.00,,---,0.00,VWS V14.01,2013-01-24 21:43:00,
2013-01-24 15:48:00,9.2,-3.3,30.55,ESE,115,1.0,8.0,56,0.00,,---,0.00,VWS V14.01,2013-01-24 21:48:00,
2013-01-24 15:53:00,9.3,-2.8,30.54,NE,38,0.0,8.0,57,0.00,,---,0.00,VWS V14.01,2013-01-24 21:53:00,
2013-01-24 15:58:00,9.5,-3.0,30.54,ENE,76,3.0,3.0,56,0.00,,---,0.00,VWS V14.01,2013-01-24 21:58:00,
2013-01-24 16:03:00,9.5,-3.0,30.54,East,99,4.0,6.0,56,0.00,,---,0.00,VWS V14.01,2013-01-24 22:03:00,
2013-01-24 16:08:00,9.5,-3.0,30.53,North,360,2.0,6.0,56,0.00,,---,0.00,VWS V14.01,2013-01-24 22:08:00,
2013-01-24 16:13:00,9.5,-3.0,30.53,ENE,65,2.0,7.0,56,0.00,,---,0.00,VWS V14.01,2013-01-24 22:13:00,
2013-01-24 16:18:00,9.5,-3.0,30.52,ESE,113,1.0,7.0,56,0.00,,---,0.00,VWS V14.01,2013-01-24 22:18:00,
2013-01-24 16:23:00,9.6,-2.9,30.52,ENE,57,3.0,7.0,56,0.00,,---,0.00,VWS V14.01,2013-01-24 22:23:00,
2013-01-24 16:28:00,9.6,-2.9,30.52,ENE,57,2.0,4.0,56,0.00,,---,0.00,VWS V14.01,2013-01-24 22:28:00,
2013-01-24 16:33:00,9.7,-3.2,30.53,ESE,112,0.0,4.0,55,0.00,,---,0.00,VWS V14.01,2013-01-24 22:33:00,
2013-01-24 16:38:00,9.8,-3.1,30.52,ESE,115,0.0,5.0,55,0.00,,---,0.00,VWS V14.01,2013-01-24 22:38:00,
2013-01-24 16:43:00,9.8,-3.1,30.52,ENE,62,2.0,2.0,55,0.00,,---,0.00,VWS V14.01,2013-01-24 22:43:00,
2013-01-24 16:48:00,9.9,-3.0,30.51,ENE,76,0.0,4.0,55,0.00,,---,0.00,VWS V14.01,2013-01-24 22:48:00,
2013-01-24 16:53:00,9.9,-3.0,30.51,SE,130,2.0,4.0,55,0.00,,---,0.00,VWS V14.01,2013-01-24 22:53:00,
2013-01-24 16:58:00,9.9,-3.4,30.50,ESE,106,1.0,5.0,54,0.00,,---,0.00,VWS V14.01,2013-01-24 22:58:00,
2013-01-24 17:03:00,9.9,-3.4,30.50,ENE,72,3.0,7.0,54,0.00,,---,0.00,VWS V14.01,2013-01-24 23:03:00,
2013-01-24 17:08:00,9.9,-3.8,30.50,NE,40,2.0,7.0,53,0.00,,---,0.00,VWS V14.01,2013-01-24 23:08:00,
2013-01-24 17:13:00,10.0,-3.3,30.50,NW,306,0.0,1.0,54,0.00,,---,0.00,VWS V14.01,2013-01-24 23:13:00,
2013-01-24 17:18:00,10.0,-3.3,30.50,NE,40,1.0,5.0,54,0.00,,---,0.00,VWS V14.01,2013-01-24 23:18:00,
2013-01-24 17:23:00,9.9,-2.3,30.50,NE,40,1.0,5.0,57,0.00,,---,0.00,VWS V14.01,2013-01-24 23:23:00,
2013-01-24 17:28:00,9.6,-1.5,30.50,SSE,149,1.0,1.0,60,0.00,,---,0.00,VWS V14.01,2013-01-24 23:28:00,
2013-01-24 17:33:00,9.4,-1.3,30.50,SSE,148,1.0,1.0,61,0.00,,---,0.00,VWS V14.01,2013-01-24 23:33:00,
2013-01-24 17:38:00,9.2,-1.2,30.49,ENE,69,1.0,2.0,62,0.00,,---,0.00,VWS V14.01,2013-01-24 23:38:00,
2013-01-24 17:42:00,9.1,-0.9,30.49,SSE,161,1.0,2.0,63,0.00,,---,0.00,VWS V14.01,2013-01-24 23:42:00,
2013-01-24 17:47:00,8.9,-1.1,30.48,ENE,65,1.0,3.0,63,0.00,,---,0.00,VWS V14.01,2013-01-24 23:47:00,
2013-01-24 17:53:00,8.9,-0.8,30.49,SE,134,1.0,3.0,64,0.00,,---,0.00,VWS V14.01,2013-01-24 23:53:00,
2013-01-24 17:58:00,8.9,-0.4,30.48,NNE,16,1.0,1.0,65,0.00,,---,0.00,VWS V14.01,2013-01-24 23:58:00,
2013-01-24 18:03:00,8.9,-0.4,30.48,NE,38,1.0,2.0,65,0.00,,---,0.00,VWS V14.01,2013-01-25 00:03:00,
2013-01-24 18:07:00,8.9,-0.4,30.48,SE,142,2.0,5.0,65,0.00,,---,0.00,VWS V14.01,2013-01-25 00:07:00,
2013-01-24 18:12:00,8.9,-0.8,30.47,ESE,103,2.0,3.0,64,0.00,,---,0.00,VWS V14.01,2013-01-25 00:12:00,
2013-01-24 18:17:00,8.9,-0.8,30.46,SE,130,3.0,8.0,64,0.00,,---,0.00,VWS V14.01,2013-01-25 00:17:00,
2013-01-24 18:23:00,8.9,-1.1,30.45,ESE,119,1.0,8.0,63,0.00,,---,0.00,VWS V14.01,2013-01-25 00:23:00,
2013-01-24 18:28:00,8.9,-0.8,30.45,ESE,116,2.0,3.0,64,0.00,,---,0.00,VWS V14.01,2013-01-25 00:28:00,
2013-01-24 18:33:00,8.8,-0.9,30.45,ENE,78,1.0,3.0,64,0.00,,---,0.00,VWS V14.01,2013-01-25 00:33:00,
2013-01-24 18:38:00,8.8,-0.6,30.45,East,95,4.0,5.0,65,0.00,,---,0.00,VWS V14.01,2013-01-25 00:38:00,
2013-01-24 18:43:00,8.8,-0.6,30.44,ENE,78,1.0,2.0,65,0.00,,---,0.00,VWS V14.01,2013-01-25 00:43:00,
2013-01-24 18:48:00,8.8,-0.6,30.44,ESE,110,3.0,6.0,65,0.00,,---,0.00,VWS V14.01,2013-01-25 00:48:00,
2013-01-24 18:53:00,8.7,-0.6,30.45,ESE,102,1.0,10.0,65,0.00,,---,0.00,VWS V14.01,2013-01-25 00:53:00,
2013-01-24 18:58:00,8.7,-0.6,30.45,ESE,112,1.0,4.0,65,0.00,,---,0.00,VWS V14.01,2013-01-25 00:58:00,
2013-01-24 19:03:00,8.8,-0.6,30.44,SSE,155,2.0,4.0,65,0.00,,---,0.00,VWS V14.01,2013-01-25 01:03:00,
2013-01-24 19:08:00,8.7,-0.3,30.43,ESE,102,3.0,4.0,66,0.00,,---,0.00,VWS V14.01,2013-01-25 01:08:00,
2013-01-24 19:12:00,8.8,-0.6,30.43,ENE,68,1.0,3.0,65,0.00,,---,0.00,VWS V14.01,2013-01-25 01:12:00,
2013-01-24 19:17:00,8.8,-0.2,30.42,East,97,2.0,3.0,66,0.00,,---,0.00,VWS V14.01,2013-01-25 01:17:00,
2013-01-24 19:22:00,8.8,-0.2,30.41,ENE,78,1.0,5.0,66,0.00,,---,0.00,VWS V14.01,2013-01-25 01:22:00,
2013-01-24 19:27:00,8.8,-0.2,30.41,SSE,154,2.0,4.0,66,0.00,,---,0.00,VWS V14.01,2013-01-25 01:27:00,
2013-01-24 19:32:00,8.9,0.2,30.41,South,180,4.0,6.0,67,0.00,,---,0.00,VWS V14.01,2013-01-25 01:32:00,
2013-01-24 19:37:00,9.1,0.1,30.41,SE,133,0.0,6.0,66,0.00,,---,0.00,VWS V14.01,2013-01-25 01:37:00,
2013-01-24 19:42:00,9.2,0.2,30.40,ESE,123,2.0,6.0,66,0.00,,---,0.00,VWS V14.01,2013-01-25 01:42:00,
2013-01-24 19:47:00,9.3,0.3,30.39,East,83,1.0,6.0,66,0.00,,---,0.00,VWS V14.01,2013-01-25 01:47:00,
2013-01-24 19:52:00,9.4,0.3,30.39,ENE,59,1.0,6.0,66,0.00,,---,0.00,VWS V14.01,2013-01-25 01:52:00,
2013-01-24 19:57:00,9.5,0.1,30.38,South,172,0.0,1.0,65,0.00,,---,0.00,VWS V14.01,2013-01-25 01:57:00,
2013-01-24 20:02:00,9.6,0.2,30.38,ENE,64,1.0,3.0,65,0.00,,---,0.00,VWS V14.01,2013-01-25 02:02:00,
2013-01-24 20:07:00,9.6,0.2,30.37,ESE,107,3.0,6.0,65,0.00,,---,0.00,VWS V14.01,2013-01-25 02:07:00,
2013-01-24 20:12:00,9.7,0.3,30.37,SE,141,0.0,3.0,65,0.00,,---,0.00,VWS V14.01,2013-01-25 02:12:00,
2013-01-24 20:17:00,9.8,0.4,30.36,SSE,149,0.0,5.0,65,0.00,,---,0.00,VWS V14.01,2013-01-25 02:17:00,
2013-01-24 20:22:00,9.8,0.4,30.36,NNW,342,1.0,5.0,65,0.00,,---,0.00,VWS V14.01,2013-01-25 02:22:00,
2013-01-24 20:27:00,9.9,0.5,30.36,SE,131,2.0,2.0,65,0.00,,---,0.00,VWS V14.01,2013-01-25 02:27:00,
2013-01-24 20:32:00,9.9,0.5,30.36,ENE,64,2.0,4.0,65,0.00,,---,0.00,VWS V14.01,2013-01-25 02:32:00,
2013-01-24 20:37:00,10.0,0.6,30.37,ESE,115,2.0,4.0,65,0.00,,---,0.00,VWS V14.01,2013-01-25 02:37:00,
2013-01-24 20:42:00,10.0,0.6,30.36,East,81,0.0,1.0,65,0.00,,---,0.00,VWS V14.01,2013-01-25 02:42:00,
2013-01-24 20:47:00,10.0,0.9,30.36,SE,140,0.0,3.0,66,0.00,,---,0.00,VWS V14.01,2013-01-25 02:47:00,
2013-01-24 20:52:00,10.1,1.0,30.37,South,169,0.0,4.0,66,0.00,,---,0.00,VWS V14.01,2013-01-25 02:52:00,
2013-01-24 20:57:00,10.2,0.8,30.36,SE,124,1.0,1.0,65,0.00,,---,0.00,VWS V14.01,2013-01-25 02:57:00,
2013-01-24 21:02:00,10.3,0.9,30.36,East,83,1.0,3.0,65,0.00,,---,0.00,VWS V14.01,2013-01-25 03:02:00,
2013-01-24 21:07:00,10.4,1.0,30.35,SSE,151,3.0,3.0,65,0.00,,---,0.00,VWS V14.01,2013-01-25 03:07:00,
2013-01-24 21:12:00,10.6,1.2,30.35,ESE,108,2.0,4.0,65,0.00,,---,0.00,VWS V14.01,2013-01-25 03:12:00,
2013-01-24 21:17:00,10.9,1.1,30.35,East,92,1.0,5.0,64,0.00,,---,0.00,VWS V14.01,2013-01-25 03:17:00,
2013-01-24 21:22:00,11.2,1.1,30.35,SE,141,5.0,8.0,63,0.00,,---,0.00,VWS V14.01,2013-01-25 03:22:00,
2013-01-24 21:27:00,11.4,0.9,30.34,East,98,6.0,6.0,62,0.00,,---,0.00,VWS V14.01,2013-01-25 03:27:00,
2013-01-24 21:32:00,11.6,0.8,30.34,ESE,123,2.0,7.0,61,0.00,,---,0.00,VWS V14.01,2013-01-25 03:32:00,
2013-01-24 21:37:00,11.8,1.3,30.34,SE,137,3.0,8.0,62,0.00,,---,0.00,VWS V14.01,2013-01-25 03:37:00,
2013-01-24 21:42:00,11.9,1.0,30.34,SE,126,4.0,5.0,61,0.00,,---,0.00,VWS V14.01,2013-01-25 03:42:00,
2013-01-24 21:47:00,12.0,1.1,30.33,SSW,212,3.0,7.0,61,0.00,,---,0.00,VWS V14.01,2013-01-25 03:47:00,
2013-01-24 21:52:00,12.1,1.2,30.34,ESE,102,6.0,7.0,61,0.00,,---,0.00,VWS V14.01,2013-01-25 03:52:00,
2013-01-24 21:57:00,12.2,1.3,30.34,NE,48,2.0,2.0,61,0.00,,---,0.00,VWS V14.01,2013-01-25 03:57:00,
2013-01-24 22:02:00,12.4,1.5,30.35,ESE,112,5.0,5.0,61,0.00,,---,0.00,VWS V14.01,2013-01-25 04:02:00,
2013-01-24 22:07:00,12.5,1.6,30.35,East,97,3.0,8.0,61,0.00,,---,0.00,VWS V14.01,2013-01-25 04:07:00,
2013-01-24 22:12:00,12.6,1.7,30.36,SSW,194,3.0,5.0,61,0.00,,---,0.00,VWS V14.01,2013-01-25 04:12:00,
2013-01-24 22:17:00,12.6,1.7,30.36,East,95,2.0,10.0,61,0.00,,---,0.00,VWS V14.01,2013-01-25 04:17:00,
2013-01-24 22:22:00,12.7,1.8,30.36,SE,131,3.0,10.0,61,0.00,,---,0.00,VWS V14.01,2013-01-25 04:22:00,
2013-01-24 22:27:00,12.8,1.9,30.35,SE,126,2.0,2.0,61,0.00,,---,0.00,VWS V14.01,2013-01-25 04:27:00,
2013-01-24 22:32:00,12.8,1.9,30.35,SW,228,4.0,7.0,61,0.00,,---,0.00,VWS V14.01,2013-01-25 04:32:00,
2013-01-24 22:37:00,12.9,2.3,30.35,SE,128,4.0,7.0,62,0.00,,---,0.00,VWS V14.01,2013-01-25 04:37:00,
2013-01-24 22:42:00,12.9,2.3,30.35,ESE,108,1.0,3.0,62,0.00,,---,0.00,VWS V14.01,2013-01-25 04:42:00,
2013-01-24 22:47:00,12.9,2.3,30.35,ESE,121,0.0,6.0,62,0.00,,---,0.00,VWS V14.01,2013-01-25 04:47:00,
2013-01-24 22:52:00,13.0,2.4,30.34,SSW,199,2.0,6.0,62,0.00,,---,0.00,VWS V14.01,2013-01-25 04:52:00,
2013-01-24 22:57:00,13.0,2.8,30.33,SSW,197,2.0,2.0,63,0.00,,---,0.00,VWS V14.01,2013-01-25 04:57:00,
2013-01-24 23:00:00,13.0,2.8,30.33,East,83,1.0,3.0,63,0.00,,---,0.00,VWS V14.01,2013-01-25 05:00:00,
2013-01-24 23:03:00,13.0,2.8,30.33,NE,47,1.0,6.0,63,0.00,,---,0.00,VWS V14.01,2013-01-25 05:03:00,
2013-01-24 23:08:00,13.1,2.9,30.33,ESE,102,1.0,6.0,63,0.00,,---,0.00,VWS V14.01,2013-01-25 05:08:00,
2013-01-24 23:13:00,13.2,3.0,30.33,East,100,0.0,2.0,63,0.00,,---,0.00,VWS V14.01,2013-01-25 05:13:00,
2013-01-24 23:18:00,13.2,3.0,30.33,East,90,1.0,3.0,63,0.00,,---,0.00,VWS V14.01,2013-01-25 05:18:00,
2013-01-24 23:23:00,13.3,3.4,30.32,SSW,209,2.0,4.0,64,0.00,,---,0.00,VWS V14.01,2013-01-25 05:23:00,
2013-01-24 23:28:00,13.3,3.4,30.32,East,88,1.0,2.0,64,0.00,,---,0.00,VWS V14.01,2013-01-25 05:28:00,
2013-01-24 23:33:00,13.4,3.5,30.32,ESE,103,0.0,4.0,64,0.00,,---,0.00,VWS V14.01,2013-01-25 05:33:00,
2013-01-24 23:38:00,13.4,3.5,30.31,SSE,151,2.0,4.0,64,0.00,,---,0.00,VWS V14.01,2013-01-25 05:38:00,
2013-01-24 23:43:00,13.5,3.6,30.31,SW,216,1.0,4.0,64,0.00,,---,0.00,VWS V14.01,2013-01-25 05:43:00,
2013-01-24 23:48:00,13.5,3.6,30.31,ESE,104,3.0,5.0,64,0.00,,---,0.00,VWS V14.01,2013-01-25 05:48:00,
2013-01-24 23:53:00,13.5,3.6,30.31,East,99,1.0,6.0,64,0.00,,---,0.00,VWS V14.01,2013-01-25 05:53:00,
2013-01-24 23:58:00,13.5,3.9,30.30,SE,134,1.0,2.0,65,0.00,,---,0.00,VWS V14.01,2013-01-25 05:58:00,